Time,TemperatureF,DewpointF,PressureIn,WindDirection,WindDirectionDegrees,WindSpeedMPH,WindSpeedGustMPH,Humidity,HourlyPrecipIn,Conditions,Clouds,dailyrainin,SolarRadiationWatts/m^2,SoftwareType,DateUTC
2013-02-22 00:04:00,25.8,24.0,29.94,East,94,12.0,17.0,93,0.00,CLR,CLR,0.00,0.0,WeatherDisplay:10.37,2013-02-22 06:04:00,
2013-02-22 00:09:00,25.7,24.0,29.93,East,93,10.0,15.0,93,0.00,CLR,CLR,0.00,0.0,WeatherDisplay:10.37,2013-02-22 06:09:00,
2013-02-22 00:14:00,25.7,24.0,29.93,East,95,10.0,17.0,93,0.00,CLR,CLR,0.00,0.0,WeatherDisplay:10.37,2013-02-22 06:14:00,
2013-02-22 00:19:00,25.6,24.1,29.93,East,94,10.0,16.0,94,0.00,CLR,CLR,0.00,0.0,WeatherDisplay:10.37,2013-02-22 06:19:00,
2013-02-22 00:24:00,25.6,23.9,29.93,East,93,10.0,15.0,93,0.00,CLR,CLR,0.00,0.0,WeatherDisplay:10.37,2013-02-22 06:24:00,
2013-02-22 00:29:00,25.6,24.1,29.93,East,95,14.0,20.0,94,0.00,CLR,CLR,0.00,0.0,WeatherDisplay:10.37,2013-02-22 06:29:00,
2013-02-22 00:34:00,25.6,24.1,29.92,East,96,10.0,15.0,94,0.00,CLR,CLR,0.00,0.0,WeatherDisplay:10.37,2013-02-22 06:34:00,
2013-02-22 00:39:00,25.8,24.3,29.92,East,96,12.0,20.0,94,0.00,CLR,CLR,0.00,0.0,WeatherDisplay:10.37,2013-02-22 06:39:00,
2013-02-22 00:44:00,25.9,24.4,29.92,East,97,9.0,16.0,94,0.00,CLR,CLR,0.00,0.0,WeatherDisplay:10.37,2013-02-22 06:44:00,
2013-02-22 00:49:00,25.9,24.4,29.92,East,94,8.0,15.0,94,0.00,CLR,CLR,0.00,0.0,WeatherDisplay:10.37,2013-02-22 06:49:00,
2013-02-22 00:54:00,25.8,24.1,29.92,East,94,12.0,20.0,93,0.00,CLR,CLR,0.00,0.0,WeatherDisplay:10.37,2013-02-22 06:54:00,
2013-02-22 00:59:00,25.7,24.0,29.92,East,95,12.0,20.0,93,0.00,CLR,CLR,0.00,0.0,WeatherDisplay:10.37,2013-02-22 06:59:00,
2013-02-22 01:04:00,25.9,24.4,29.92,East,89,13.0,18.0,94,0.00,CLR,CLR,0.00,0.0,WeatherDisplay:10.37,2013-02-22 07:04:00,
2013-02-22 01:09:00,26.0,24.5,29.92,East,94,10.0,20.0,94,0.00,CLR,CLR,0.00,0.0,WeatherDisplay:10.37,2013-02-22 07:09:00,
2013-02-22 01:14:00,26.0,24.2,29.92,ESE,103,17.0,25.0,93,0.00,CLR,CLR,0.00,0.0,WeatherDisplay:10.37,2013-02-22 07:14:00,
2013-02-22 01:24:00,25.7,24.0,29.91,ESE,102,13.0,18.0,93,0.00,CLR,CLR,0.00,0.0,WeatherDisplay:10.37,2013-02-22 07:24:00,
2013-02-22 01:29:00,25.6,23.9,29.91,East,98,13.0,16.0,93,0.00,CLR,CLR,0.00,0.0,WeatherDisplay:10.37,2013-02-22 07:29:00,
2013-02-22 01:34:00,25.6,23.9,29.91,East,100,14.0,21.0,93,0.00,CLR,CLR,0.00,0.0,WeatherDisplay:10.37,2013-02-22 07:34:00,
2013-02-22 01:39:00,25.7,24.2,29.90,ESE,102,12.0,21.0,94,0.00,CLR,CLR,0.00,0.0,WeatherDisplay:10.37,2013-02-22 07:39:00,
2013-02-22 01:44:00,25.8,24.3,29.90,East,101,10.0,15.0,94,0.00,CLR,CLR,0.00,0.0,WeatherDisplay:10.37,2013-02-22 07:44:00,
2013-02-22 01:49:00,25.8,24.1,29.90,East,99,12.0,16.0,93,0.00,CLR,CLR,0.00,0.0,WeatherDisplay:10.37,2013-02-22 07:49:00,
2013-02-22 01:54:00,25.7,24.0,29.90,East,100,12.0,16.0,93,0.00,CLR,CLR,0.00,0.0,WeatherDisplay:10.37,2013-02-22 07:54:00,
2013-02-22 01:59:00,25.6,23.9,29.89,ESE,104,9.0,17.0,93,0.00,CLR,CLR,0.00,0.0,WeatherDisplay:10.37,2013-02-22 07:59:00,
2013-02-22 02:04:00,25.6,24.1,29.89,East,96,13.0,18.0,94,0.00,CLR,CLR,0.00,0.0,WeatherDisplay:10.37,2013-02-22 08:04:00,
2013-02-22 02:09:00,25.6,23.9,29.89,East,97,12.0,17.0,93,0.00,CLR,CLR,0.00,0.0,WeatherDisplay:10.37,2013-02-22 08:09:00,
2013-02-22 02:14:00,25.5,24.0,29.88,East,97,10.0,14.0,94,0.00,CLR,CLR,0.00,0.0,WeatherDisplay:10.37,2013-02-22 08:14:00,
2013-02-22 02:24:00,25.4,23.9,29.88,East,101,9.0,16.0,94,0.00,CLR,CLR,0.00,0.0,WeatherDisplay:10.37,2013-02-22 08:24:00,
2013-02-22 02:29:00,25.5,24.0,29.88,ESE,103,10.0,15.0,94,0.00,CLR,CLR,0.00,0.0,WeatherDisplay:10.37,2013-02-22 08:29:00,
2013-02-22 02:34:00,25.5,24.0,29.88,ESE,102,9.0,13.0,94,0.00,CLR,CLR,0.00,0.0,WeatherDisplay:10.37,2013-02-22 08:34:00,
2013-02-22 02:39:00,25.5,24.0,29.88,East,100,12.0,15.0,94,0.00,CLR,CLR,0.00,0.0,WeatherDisplay:10.37,2013-02-22 08:39:00,
2013-02-22 02:44:00,25.5,24.0,29.87,East,100,9.0,13.0,94,0.00,CLR,CLR,0.00,0.0,WeatherDisplay:10.37,2013-02-22 08:44:00,
2013-02-22 02:49:00,25.5,24.0,29.87,East,101,9.0,14.0,94,0.00,CLR,CLR,0.00,0.0,WeatherDisplay:10.37,2013-02-22 08:49:00,
2013-02-22 02:54:00,25.5,24.1,29.87,East,101,10.0,14.0,94,0.00,CLR,CLR,0.00,0.0,WeatherDisplay:10.37,2013-02-22 08:54:00,
2013-02-22 02:59:00,25.6,24.1,29.87,East,100,12.0,15.0,94,0.00,CLR,CLR,0.00,0.0,WeatherDisplay:10.37,2013-02-22 08:59:00,
2013-02-22 03:04:00,25.7,24.2,29.87,East,101,10.0,15.0,94,0.00,CLR,CLR,0.00,0.0,WeatherDisplay:10.37,2013-02-22 09:04:00,
2013-02-22 03:09:00,25.7,24.2,29.86,ESE,103,10.0,15.0,94,0.00,CLR,CLR,0.00,0.0,WeatherDisplay:10.37,2013-02-22 09:09:00,
2013-02-22 03:14:00,25.7,24.2,29.86,ESE,105,10.0,14.0,94,0.00,CLR,CLR,0.00,0.0,WeatherDisplay:10.37,2013-02-22 09:14:00,
2013-02-22 03:19:00,25.8,24.3,29.86,East,101,9.0,13.0,94,0.00,CLR,CLR,0.00,0.0,WeatherDisplay:10.37,2013-02-22 09:19:00,
2013-02-22 03:24:00,25.8,24.3,29.86,East,100,9.0,12.0,94,0.00,CLR,CLR,0.00,0.0,WeatherDisplay:10.37,2013-02-22 09:24:00,
2013-02-22 03:29:00,25.9,24.4,29.86,East,101,8.0,12.0,94,0.00,CLR,CLR,0.00,0.0,WeatherDisplay:10.37,2013-02-22 09:29:00,
2013-02-22 03:34:00,26.0,24.5,29.86,East,101,9.0,12.0,94,0.00,CLR,CLR,0.00,0.0,WeatherDisplay:10.37,2013-02-22 09:34:00,
2013-02-22 03:39:00,26.1,24.6,29.86,ESE,103,9.0,14.0,94,0.00,CLR,CLR,0.00,0.0,WeatherDisplay:10.37,2013-02-22 09:39:00,
2013-02-22 03:44:00,26.1,24.6,29.85,ESE,103,10.0,14.0,94,0.00,CLR,CLR,0.00,0.0,WeatherDisplay:10.37,2013-02-22 09:44:00,
2013-02-22 03:49:00,26.2,24.7,29.85,ESE,103,7.0,14.0,94,0.00,CLR,CLR,0.00,0.0,WeatherDisplay:10.37,2013-02-22 09:49:00,
2013-02-22 03:54:00,26.1,24.6,29.85,East,97,9.0,13.0,94,0.00,CLR,CLR,0.00,0.0,WeatherDisplay:10.37,2013-02-22 09:54:00,
2013-02-22 03:59:00,26.1,24.6,29.85,East,99,9.0,15.0,94,0.00,CLR,CLR,0.00,0.0,WeatherDisplay:10.37,2013-02-22 09:59:00,
2013-02-22 04:04:00,26.0,24.5,29.84,East,101,10.0,14.0,94,0.00,CLR,CLR,0.00,0.0,WeatherDisplay:10.37,2013-02-22 10:04:00,
2013-02-22 04:09:00,25.8,24.3,29.84,ESE,105,12.0,15.0,94,0.00,CLR,CLR,0.00,0.0,WeatherDisplay:10.37,2013-02-22 10:09:00,
2013-02-22 04:14:00,25.7,24.2,29.84,East,99,8.0,15.0,94,0.00,CLR,CLR,0.00,0.0,WeatherDisplay:10.37,2013-02-22 10:14:00,
2013-02-22 04:19:00,25.7,24.2,29.84,East,95,8.0,13.0,94,0.00,CLR,CLR,0.00,0.0,WeatherDisplay:10.37,2013-02-22 10:19:00,
2013-02-22 04:24:00,25.7,24.2,29.84,East,96,9.0,15.0,94,0.00,CLR,CLR,0.00,0.0,WeatherDisplay:10.37,2013-02-22 10:24:00,
2013-02-22 04:29:00,25.7,24.2,29.84,East,98,10.0,15.0,94,0.00,CLR,CLR,0.00,0.0,WeatherDisplay:10.37,2013-02-22 10:29:00,
2013-02-22 04:34:00,25.7,24.2,29.84,East,100,10.0,14.0,94,0.00,CLR,CLR,0.00,0.0,WeatherDisplay:10.37,2013-02-22 10:34:00,
2013-02-22 04:39:00,25.7,24.2,29.84,ESE,102,8.0,12.0,94,0.00,CLR,CLR,0.00,0.0,WeatherDisplay:10.37,2013-02-22 10:39:00,
2013-02-22 04:44:00,25.7,24.2,29.84,East,98,7.0,12.0,94,0.00,CLR,CLR,0.00,0.0,WeatherDisplay:10.37,2013-02-22 10:44:00,
2013-02-22 04:49:00,25.7,24.2,29.84,East,96,7.0,13.0,94,0.00,CLR,CLR,0.00,0.0,WeatherDisplay:10.37,2013-02-22 10:49:00,
2013-02-22 04:54:00,25.7,24.2,29.84,East,95,10.0,13.0,94,0.00,CLR,CLR,0.00,0.0,WeatherDisplay:10.37,2013-02-22 10:54:00,
2013-02-22 04:59:00,25.7,24.2,29.84,East,88,8.0,12.0,94,0.00,CLR,CLR,0.00,0.0,WeatherDisplay:10.37,2013-02-22 10:59:00,
2013-02-22 05:04:00,25.7,24.2,29.84,East,95,8.0,12.0,94,0.00,CLR,CLR,0.00,0.0,WeatherDisplay:10.37,2013-02-22 11:04:00,
2013-02-22 05:09:00,25.7,24.2,29.84,East,96,7.0,13.0,94,0.00,CLR,CLR,0.00,0.0,WeatherDisplay:10.37,2013-02-22 11:09:00,
2013-02-22 05:14:00,25.8,24.3,29.84,East,92,9.0,10.0,94,0.00,CLR,CLR,0.00,0.0,WeatherDisplay:10.37,2013-02-22 11:14:00,
2013-02-22 05:19:00,25.8,24.3,29.83,East,90,7.0,12.0,94,0.00,CLR,CLR,0.00,0.0,WeatherDisplay:10.37,2013-02-22 11:19:00,
2013-02-22 05:24:00,25.8,24.3,29.83,East,95,9.0,12.0,94,0.00,CLR,CLR,0.00,0.0,WeatherDisplay:10.37,2013-02-22 11:24:00,
2013-02-22 05:29:00,25.9,24.4,29.83,East,94,6.0,10.0,94,0.00,CLR,CLR,0.00,0.0,WeatherDisplay:10.37,2013-02-22 11:29:00,
2013-02-22 05:34:00,25.9,24.4,29.83,East,97,9.0,12.0,94,0.00,CLR,CLR,0.00,0.0,WeatherDisplay:10.37,2013-02-22 11:34:00,
2013-02-22 05:44:00,26.0,24.5,29.83,East,98,7.0,10.0,94,0.00,CLR,CLR,0.00,0.0,WeatherDisplay:10.37,2013-02-22 11:44:00,
2013-02-22 05:49:00,26.1,24.6,29.83,East,101,6.0,9.0,94,0.00,CLR,CLR,0.00,0.0,WeatherDisplay:10.37,2013-02-22 11:49:00,
2013-02-22 05:54:00,26.1,24.9,29.83,ESE,106,8.0,9.0,95,0.00,CLR,CLR,0.00,0.0,WeatherDisplay:10.37,2013-02-22 11:54:00,
2013-02-22 05:59:00,26.2,25.0,29.83,ESE,115,7.0,12.0,95,0.00,CLR,CLR,0.00,0.0,WeatherDisplay:10.37,2013-02-22 11:59:00,
2013-02-22 06:04:00,26.2,25.0,29.83,ESE,110,9.0,13.0,95,0.00,CLR,CLR,0.00,0.0,WeatherDisplay:10.37,2013-02-22 12:04:00,
2013-02-22 06:09:00,26.3,25.1,29.82,ESE,102,8.0,12.0,95,0.00,CLR,CLR,0.00,0.0,WeatherDisplay:10.37,2013-02-22 12:09:00,
2013-02-22 06:14:00,26.3,25.1,29.82,East,100,8.0,12.0,95,0.00,CLR,CLR,0.00,0.0,WeatherDisplay:10.37,2013-02-22 12:14:00,
2013-02-22 06:19:00,26.4,25.2,29.82,ESE,104,7.0,10.0,95,0.00,CLR,CLR,0.00,0.0,WeatherDisplay:10.37,2013-02-22 12:19:00,
2013-02-22 06:24:00,26.4,25.2,29.82,ESE,107,8.0,12.0,95,0.00,CLR,CLR,0.00,0.0,WeatherDisplay:10.37,2013-02-22 12:24:00,
2013-02-22 06:29:00,26.5,25.0,29.82,ESE,107,8.0,12.0,94,0.00,CLR,CLR,0.00,0.0,WeatherDisplay:10.37,2013-02-22 12:29:00,
2013-02-22 06:34:00,26.6,25.1,29.82,ESE,108,9.0,12.0,94,0.00,CLR,CLR,0.00,0.0,WeatherDisplay:10.37,2013-02-22 12:34:00,
2013-02-22 06:39:00,26.7,25.2,29.82,ESE,110,8.0,12.0,94,0.00,CLR,CLR,0.00,0.0,WeatherDisplay:10.37,2013-02-22 12:39:00,
2013-02-22 06:44:00,26.7,25.5,29.82,ESE,112,8.0,12.0,95,0.00,CLR,CLR,0.00,0.0,WeatherDisplay:10.37,2013-02-22 12:44:00,
2013-02-22 06:49:00,26.8,25.6,29.82,ESE,114,9.0,12.0,95,0.00,CLR,CLR,0.00,0.0,WeatherDisplay:10.37,2013-02-22 12:49:00,
2013-02-22 06:54:00,26.8,25.6,29.81,ESE,113,8.0,12.0,95,0.00,CLR,CLR,0.00,0.0,WeatherDisplay:10.37,2013-02-22 12:54:00,
2013-02-22 06:59:00,26.8,25.6,29.81,ESE,109,8.0,12.0,95,0.00,CLR,CLR,0.00,0.0,WeatherDisplay:10.37,2013-02-22 12:59:00,
2013-02-22 07:04:00,26.8,25.6,29.81,ESE,109,8.0,13.0,95,0.00,CLR,CLR,0.00,0.0,WeatherDisplay:10.37,2013-02-22 13:04:00,
2013-02-22 07:09:00,26.9,25.7,29.81,ESE,112,7.0,12.0,95,0.00,CLR,CLR,0.00,0.0,WeatherDisplay:10.37,2013-02-22 13:09:00,
2013-02-22 07:14:00,26.9,25.7,29.81,ESE,112,8.0,12.0,95,0.00,CLR,CLR,0.00,0.0,WeatherDisplay:10.37,2013-02-22 13:14:00,
2013-02-22 07:19:00,27.0,25.8,29.81,ESE,110,7.0,12.0,95,0.00,CLR,CLR,0.00,0.0,WeatherDisplay:10.37,2013-02-22 13:19:00,
2013-02-22 07:24:00,27.0,25.8,29.81,ESE,115,8.0,12.0,95,0.00,CLR,CLR,0.00,0.0,WeatherDisplay:10.37,2013-02-22 13:24:00,
2013-02-22 07:29:00,27.1,25.9,29.81,ESE,117,7.0,14.0,95,0.00,CLR,CLR,0.00,0.0,WeatherDisplay:10.37,2013-02-22 13:29:00,
2013-02-22 07:34:00,27.2,26.0,29.81,ESE,116,8.0,12.0,95,0.00,CLR,CLR,0.00,0.0,WeatherDisplay:10.37,2013-02-22 13:34:00,
2013-02-22 07:39:00,27.2,26.0,29.81,ESE,121,9.0,13.0,95,0.00,CLR,CLR,0.00,0.0,WeatherDisplay:10.37,2013-02-22 13:39:00,
2013-02-22 07:44:00,27.4,26.1,29.81,SE,126,8.0,13.0,95,0.00,CLR,CLR,0.00,0.0,WeatherDisplay:10.37,2013-02-22 13:44:00,
2013-02-22 07:49:00,27.4,26.2,29.81,SE,124,9.0,12.0,95,0.00,CLR,CLR,0.00,0.0,WeatherDisplay:10.37,2013-02-22 13:49:00,
2013-02-22 07:54:00,27.5,26.3,29.82,ESE,121,10.0,12.0,95,0.00,CLR,CLR,0.00,0.0,WeatherDisplay:10.37,2013-02-22 13:54:00,
2013-02-22 07:59:00,27.6,26.4,29.81,ESE,121,8.0,14.0,95,0.00,CLR,CLR,0.00,0.0,WeatherDisplay:10.37,2013-02-22 13:59:00,
2013-02-22 08:04:00,27.8,26.5,29.82,ESE,123,8.0,13.0,95,0.00,CLR,CLR,0.00,0.0,WeatherDisplay:10.37,2013-02-22 14:04:00,
2013-02-22 08:09:00,27.9,26.7,29.81,SE,127,8.0,13.0,95,0.00,CLR,CLR,0.00,0.0,WeatherDisplay:10.37,2013-02-22 14:09:00,
2013-02-22 08:14:00,28.1,26.8,29.81,SE,127,10.0,14.0,95,0.00,CLR,CLR,0.00,0.0,WeatherDisplay:10.37,2013-02-22 14:14:00,
2013-02-22 08:19:00,28.2,27.0,29.81,SE,125,9.0,13.0,95,0.00,CLR,CLR,0.00,0.0,WeatherDisplay:10.37,2013-02-22 14:19:00,
2013-02-22 08:24:00,28.3,27.1,29.81,SE,124,10.0,13.0,95,0.00,CLR,CLR,0.00,0.0,WeatherDisplay:10.37,2013-02-22 14:24:00,
2013-02-22 08:29:00,28.4,27.2,29.81,SE,124,8.0,12.0,95,0.00,CLR,CLR,0.00,0.0,WeatherDisplay:10.37,2013-02-22 14:29:00,
2013-02-22 08:34:00,28.6,27.3,29.81,SE,127,8.0,12.0,95,0.00,CLR,CLR,0.00,0.0,WeatherDisplay:10.37,2013-02-22 14:34:00,
2013-02-22 08:39:00,28.7,27.4,29.81,SE,127,9.0,12.0,95,0.00,CLR,CLR,0.00,0.0,WeatherDisplay:10.37,2013-02-22 14:39:00,
2013-02-22 08:44:00,28.8,27.5,29.81,SE,125,7.0,12.0,95,0.00,CLR,CLR,0.00,0.0,WeatherDisplay:10.37,2013-02-22 14:44:00,
2013-02-22 08:49:00,28.9,27.9,29.81,SE,126,9.0,12.0,96,0.00,CLR,CLR,0.00,0.0,WeatherDisplay:10.37,2013-02-22 14:49:00,
2013-02-22 08:54:00,29.1,28.1,29.81,SE,126,8.0,12.0,96,0.00,CLR,CLR,0.00,0.0,WeatherDisplay:10.37,2013-02-22 14:54:00,
2013-02-22 08:59:00,29.2,28.2,29.81,SE,131,8.0,12.0,96,0.00,CLR,CLR,0.00,0.0,WeatherDisplay:10.37,2013-02-22 14:59:00,
2013-02-22 09:09:00,29.4,28.4,29.81,SE,141,7.0,12.0,96,0.00,CLR,CLR,0.00,0.0,WeatherDisplay:10.37,2013-02-22 15:09:00,
2013-02-22 09:14:00,29.5,28.5,29.81,SE,136,8.0,12.0,96,0.00,CLR,CLR,0.00,0.0,WeatherDisplay:10.37,2013-02-22 15:14:00,
2013-02-22 09:19:00,29.6,28.6,29.81,SE,135,9.0,12.0,96,0.00,CLR,CLR,0.00,0.0,WeatherDisplay:10.37,2013-02-22 15:19:00,
2013-02-22 09:24:00,29.7,28.7,29.82,SE,140,8.0,12.0,96,0.00,CLR,CLR,0.00,0.0,WeatherDisplay:10.37,2013-02-22 15:24:00,
2013-02-22 09:34:00,29.9,28.9,29.82,SE,142,8.0,12.0,96,0.00,CLR,CLR,0.00,0.0,WeatherDisplay:10.37,2013-02-22 15:34:00,
2013-02-22 09:39:00,30.0,29.0,29.82,SE,142,7.0,12.0,96,0.00,CLR,CLR,0.00,0.0,WeatherDisplay:10.37,2013-02-22 15:39:00,
2013-02-22 09:44:00,30.2,29.2,29.82,SE,142,7.0,9.0,96,0.00,CLR,CLR,0.00,0.0,WeatherDisplay:10.37,2013-02-22 15:44:00,
2013-02-22 09:49:00,30.4,29.6,29.82,SE,146,6.0,8.0,97,0.00,CLR,CLR,0.00,0.0,WeatherDisplay:10.37,2013-02-22 15:49:00,
2013-02-22 09:54:00,30.5,29.8,29.82,SSE,152,6.0,8.0,97,0.00,CLR,CLR,0.00,0.0,WeatherDisplay:10.37,2013-02-22 15:54:00,
2013-02-22 09:59:00,30.7,30.0,29.82,SSE,148,7.0,9.0,97,0.00,CLR,CLR,0.00,0.0,WeatherDisplay:10.37,2013-02-22 15:59:00,
2013-02-22 10:04:00,30.9,30.2,29.82,SE,145,6.0,9.0,97,0.00,CLR,CLR,0.00,0.0,WeatherDisplay:10.37,2013-02-22 16:04:00,
2013-02-22 10:09:00,31.1,30.4,29.82,SSE,151,5.0,8.0,97,0.00,CLR,CLR,0.00,0.0,WeatherDisplay:10.37,2013-02-22 16:09:00,
2013-02-22 10:14:00,31.3,30.6,29.82,SSE,154,5.0,8.0,97,0.00,CLR,CLR,0.00,0.0,WeatherDisplay:10.37,2013-02-22 16:14:00,
2013-02-22 10:24:00,31.8,31.0,29.82,SSE,158,5.0,7.0,97,0.00,CLR,CLR,0.00,0.0,WeatherDisplay:10.37,2013-02-22 16:24:00,
2013-02-22 10:29:00,32.0,31.3,29.82,SSE,160,5.0,7.0,97,0.00,CLR,CLR,0.00,0.0,WeatherDisplay:10.37,2013-02-22 16:29:00,
2013-02-22 10:34:00,32.3,31.5,29.82,SSE,162,3.0,7.0,97,0.00,CLR,CLR,0.00,0.0,WeatherDisplay:10.37,2013-02-22 16:34:00,
2013-02-22 10:39:00,32.5,31.7,29.82,SSE,164,5.0,7.0,97,0.00,CLR,CLR,0.00,0.0,WeatherDisplay:10.37,2013-02-22 16:39:00,
2013-02-22 10:44:00,32.8,32.0,29.82,SSE,168,5.0,7.0,97,0.00,CLR,CLR,0.00,0.0,WeatherDisplay:10.37,2013-02-22 16:44:00,
2013-02-22 10:49:00,32.9,32.1,29.82,South,172,3.0,6.0,97,0.00,CLR,CLR,0.00,0.0,WeatherDisplay:10.37,2013-02-22 16:49:00,
2013-02-22 10:54:00,33.0,32.2,29.82,South,173,3.0,6.0,97,0.00,CLR,CLR,0.00,0.0,WeatherDisplay:10.37,2013-02-22 16:54:00,
2013-02-22 10:59:00,33.1,32.4,29.83,South,182,2.0,5.0,97,0.00,CLR,CLR,0.00,0.0,WeatherDisplay:10.37,2013-02-22 16:59:00,
2013-02-22 11:04:00,33.3,32.5,29.83,SSW,193,2.0,6.0,97,0.00,CLR,CLR,0.00,0.0,WeatherDisplay:10.37,2013-02-22 17:04:00,
2013-02-22 11:09:00,33.3,32.5,29.83,SSW,207,6.0,10.0,97,0.00,CLR,CLR,0.00,0.0,WeatherDisplay:10.37,2013-02-22 17:09:00,
2013-02-22 11:14:00,33.4,32.6,29.83,SW,214,6.0,9.0,97,0.00,CLR,CLR,0.00,0.0,WeatherDisplay:10.37,2013-02-22 17:14:00,
2013-02-22 11:19:00,33.5,32.7,29.83,SW,216,6.0,12.0,97,0.00,CLR,CLR,0.00,0.0,WeatherDisplay:10.37,2013-02-22 17:19:00,
2013-02-22 11:24:00,33.5,32.8,29.83,SW,220,6.0,9.0,97,0.00,CLR,CLR,0.00,0.0,WeatherDisplay:10.37,2013-02-22 17:24:00,
2013-02-22 11:29:00,33.6,32.8,29.83,SW,226,8.0,12.0,97,0.00,CLR,CLR,0.00,0.0,WeatherDisplay:10.37,2013-02-22 17:29:00,
2013-02-22 11:34:00,33.7,32.9,29.83,SW,232,8.0,12.0,97,0.00,CLR,CLR,0.00,0.0,WeatherDisplay:10.37,2013-02-22 17:34:00,
2013-02-22 11:39:00,33.7,32.9,29.83,WSW,237,9.0,13.0,97,0.00,CLR,CLR,0.00,0.0,WeatherDisplay:10.37,2013-02-22 17:39:00,
2013-02-22 11:44:00,33.8,33.0,29.83,SW,235,8.0,12.0,97,0.00,CLR,CLR,0.00,0.0,WeatherDisplay:10.37,2013-02-22 17:44:00,
2013-02-22 11:49:00,33.8,33.1,29.83,SW,232,10.0,13.0,97,0.00,CLR,CLR,0.00,0.0,WeatherDisplay:10.37,2013-02-22 17:49:00,
2013-02-22 11:54:00,33.9,33.1,29.83,SW,234,7.0,12.0,97,0.00,CLR,CLR,0.00,0.0,WeatherDisplay:10.37,2013-02-22 17:54:00,
2013-02-22 11:59:00,34.0,33.2,29.83,SW,234,8.0,10.0,97,0.00,CLR,CLR,0.00,0.0,WeatherDisplay:10.37,2013-02-22 17:59:00,
2013-02-22 12:04:00,34.0,33.2,29.83,SW,233,8.0,10.0,97,0.00,CLR,CLR,0.00,0.0,WeatherDisplay:10.37,2013-02-22 18:04:00,
2013-02-22 12:09:00,34.1,33.3,29.83,SW,235,8.0,11.0,97,0.00,CLR,CLR,0.00,0.0,WeatherDisplay:10.37,2013-02-22 18:09:00,
2013-02-22 12:14:00,34.1,33.4,29.82,SW,231,9.0,13.0,97,0.00,CLR,CLR,0.00,0.0,WeatherDisplay:10.37,2013-02-22 18:14:00,
2013-02-22 12:19:00,34.2,33.4,29.82,SW,230,8.0,13.0,97,0.01,RA,RA,0.01,0.0,WeatherDisplay:10.37,2013-02-22 18:19:00,
2013-02-22 12:24:00,34.2,33.4,29.82,SW,232,8.0,13.0,97,0.00,RA,RA,0.01,0.0,WeatherDisplay:10.37,2013-02-22 18:24:00,
2013-02-22 12:29:00,34.3,33.5,29.82,SW,233,8.0,12.0,97,0.00,CLR,CLR,0.01,0.0,WeatherDisplay:10.37,2013-02-22 18:29:00,
2013-02-22 12:34:00,34.3,33.3,29.82,SW,231,8.0,13.0,96,0.00,CLR,CLR,0.01,0.0,WeatherDisplay:10.37,2013-02-22 18:34:00,
2013-02-22 12:39:00,34.3,33.3,29.81,SW,230,9.0,12.0,96,0.00,CLR,CLR,0.01,0.0,WeatherDisplay:10.37,2013-02-22 18:39:00,
2013-02-22 12:44:00,34.3,33.3,29.82,SW,231,8.0,13.0,96,0.00,CLR,CLR,0.01,0.0,WeatherDisplay:10.37,2013-02-22 18:44:00,
2013-02-22 12:49:00,34.4,33.3,29.81,SW,231,10.0,15.0,96,0.00,CLR,CLR,0.01,0.0,WeatherDisplay:10.37,2013-02-22 18:49:00,
2013-02-22 12:54:00,34.4,33.4,29.81,SW,232,7.0,12.0,96,0.01,RA,RA,0.02,0.0,WeatherDisplay:10.37,2013-02-22 18:54:00,
2013-02-22 12:59:00,34.4,33.4,29.81,SW,231,8.0,12.0,96,0.00,RA,RA,0.02,0.0,WeatherDisplay:10.37,2013-02-22 18:59:00,
2013-02-22 13:04:00,34.5,33.2,29.81,SW,233,10.0,14.0,95,0.00,CLR,CLR,0.02,0.0,WeatherDisplay:10.37,2013-02-22 19:04:00,
2013-02-22 13:09:00,34.5,33.2,29.81,SW,234,9.0,15.0,95,0.00,CLR,CLR,0.02,0.0,WeatherDisplay:10.37,2013-02-22 19:09:00,
2013-02-22 13:14:00,34.6,33.3,29.81,SW,233,8.0,13.0,95,0.00,CLR,CLR,0.02,0.0,WeatherDisplay:10.37,2013-02-22 19:14:00,
2013-02-22 13:19:00,34.5,33.2,29.81,SW,235,10.0,17.0,95,0.00,CLR,CLR,0.02,0.0,WeatherDisplay:10.37,2013-02-22 19:19:00,
2013-02-22 13:24:00,34.5,33.0,29.82,SW,235,14.0,18.0,94,0.00,CLR,CLR,0.02,0.0,WeatherDisplay:10.37,2013-02-22 19:24:00,
2013-02-22 13:29:00,34.4,32.9,29.82,SW,234,13.0,18.0,94,0.01,RA,RA,0.03,0.0,WeatherDisplay:10.37,2013-02-22 19:29:00,
2013-02-22 13:34:00,34.3,33.0,29.82,SW,232,9.0,14.0,95,0.00,RA,RA,0.03,0.0,WeatherDisplay:10.37,2013-02-22 19:34:00,
2013-02-22 13:39:00,34.4,32.9,29.82,SW,231,12.0,15.0,94,0.00,CLR,CLR,0.03,0.0,WeatherDisplay:10.37,2013-02-22 19:39:00,
2013-02-22 13:44:00,34.4,32.9,29.82,SW,233,10.0,20.0,94,0.00,CLR,CLR,0.03,0.0,WeatherDisplay:10.37,2013-02-22 19:44:00,
2013-02-22 13:49:00,34.3,32.8,29.82,SW,231,13.0,17.0,94,0.00,CLR,CLR,0.03,0.0,WeatherDisplay:10.37,2013-02-22 19:49:00,
2013-02-22 13:54:00,34.2,32.7,29.82,SW,228,12.0,20.0,94,0.00,CLR,CLR,0.03,0.0,WeatherDisplay:10.37,2013-02-22 19:54:00,
2013-02-22 13:59:00,34.2,32.6,29.82,SW,232,12.0,17.0,94,0.00,CLR,CLR,0.03,0.0,WeatherDisplay:10.37,2013-02-22 19:59:00,
2013-02-22 14:04:00,34.1,32.6,29.82,SW,235,12.0,17.0,94,0.00,CLR,CLR,0.03,0.0,WeatherDisplay:10.37,2013-02-22 20:04:00,
2013-02-22 14:09:00,34.1,32.6,29.82,SW,236,13.0,17.0,94,0.00,CLR,CLR,0.03,0.0,WeatherDisplay:10.37,2013-02-22 20:09:00,
2013-02-22 14:14:00,34.1,32.6,29.83,WSW,238,12.0,17.0,94,0.00,CLR,CLR,0.03,0.0,WeatherDisplay:10.37,2013-02-22 20:14:00,
2013-02-22 14:19:00,34.1,32.6,29.83,WSW,242,9.0,14.0,94,0.00,CLR,CLR,0.03,0.0,WeatherDisplay:10.37,2013-02-22 20:19:00,
2013-02-22 14:24:00,34.1,32.6,29.83,WSW,243,10.0,13.0,94,0.00,CLR,CLR,0.03,0.0,WeatherDisplay:10.37,2013-02-22 20:24:00,
2013-02-22 14:29:00,34.2,32.7,29.83,WSW,240,10.0,15.0,94,0.00,CLR,CLR,0.03,0.0,WeatherDisplay:10.37,2013-02-22 20:29:00,
2013-02-22 14:34:00,34.2,32.4,29.83,SW,236,10.0,14.0,93,0.00,CLR,CLR,0.03,0.0,WeatherDisplay:10.37,2013-02-22 20:34:00,
2013-02-22 14:39:00,34.2,32.4,29.83,WSW,239,10.0,14.0,93,0.00,CLR,CLR,0.03,0.0,WeatherDisplay:10.37,2013-02-22 20:39:00,
2013-02-22 14:49:00,34.3,32.5,29.83,WSW,242,9.0,16.0,93,0.00,CLR,CLR,0.03,0.0,WeatherDisplay:10.37,2013-02-22 20:49:00,
2013-02-22 14:54:00,34.2,32.1,29.84,WSW,238,9.0,12.0,92,0.00,CLR,CLR,0.03,0.0,WeatherDisplay:10.37,2013-02-22 20:54:00,
2013-02-22 14:59:00,34.1,32.0,29.84,WSW,240,9.0,13.0,92,0.00,CLR,CLR,0.03,0.0,WeatherDisplay:10.37,2013-02-22 20:59:00,
2013-02-22 15:04:00,34.1,32.0,29.84,WSW,237,12.0,17.0,92,0.00,CLR,CLR,0.03,0.0,WeatherDisplay:10.37,2013-02-22 21:04:00,
2013-02-22 15:09:00,34.1,31.7,29.84,WSW,239,12.0,17.0,91,0.00,CLR,CLR,0.03,0.0,WeatherDisplay:10.37,2013-02-22 21:09:00,
2013-02-22 15:14:00,34.1,31.7,29.84,WSW,243,14.0,17.0,91,0.00,CLR,CLR,0.03,0.0,WeatherDisplay:10.37,2013-02-22 21:14:00,
2013-02-22 15:19:00,34.2,31.6,29.84,WSW,245,13.0,18.0,90,0.00,CLR,CLR,0.03,0.0,WeatherDisplay:10.37,2013-02-22 21:19:00,
2013-02-22 15:24:00,34.2,31.6,29.84,WSW,246,13.0,21.0,90,0.00,CLR,CLR,0.03,0.0,WeatherDisplay:10.37,2013-02-22 21:24:00,
2013-02-22 15:29:00,34.2,31.3,29.84,WSW,251,16.0,21.0,89,0.00,CLR,CLR,0.03,0.0,WeatherDisplay:10.37,2013-02-22 21:29:00,
2013-02-22 15:34:00,34.1,31.2,29.85,WSW,249,15.0,20.0,89,0.00,CLR,CLR,0.03,0.0,WeatherDisplay:10.37,2013-02-22 21:34:00,
2013-02-22 15:44:00,33.8,30.6,29.85,WSW,249,9.0,18.0,88,0.00,CLR,CLR,0.03,0.0,WeatherDisplay:10.37,2013-02-22 21:44:00,
2013-02-22 15:49:00,33.7,30.5,29.85,WSW,257,9.0,22.0,88,0.00,CLR,CLR,0.03,0.0,WeatherDisplay:10.37,2013-02-22 21:49:00,
2013-02-22 15:54:00,33.6,30.4,29.85,WSW,258,10.0,18.0,88,0.00,CLR,CLR,0.03,0.0,WeatherDisplay:10.37,2013-02-22 21:54:00,
2013-02-22 15:59:00,33.6,29.9,29.85,West,262,9.0,18.0,86,0.00,CLR,CLR,0.03,0.0,WeatherDisplay:10.37,2013-02-22 21:59:00,
2013-02-22 16:04:00,33.4,29.4,29.85,West,264,12.0,17.0,85,0.00,CLR,CLR,0.03,0.0,WeatherDisplay:10.37,2013-02-22 22:04:00,
2013-02-22 16:09:00,33.3,29.0,29.85,WSW,256,9.0,15.0,84,0.00,CLR,CLR,0.03,0.0,WeatherDisplay:10.37,2013-02-22 22:09:00,
2013-02-22 16:14:00,33.3,29.0,29.86,West,262,8.0,16.0,84,0.00,CLR,CLR,0.03,0.0,WeatherDisplay:10.37,2013-02-22 22:14:00,
2013-02-22 16:19:00,33.1,28.8,29.86,West,270,7.0,17.0,84,0.00,CLR,CLR,0.03,0.0,WeatherDisplay:10.37,2013-02-22 22:19:00,
2013-02-22 16:24:00,32.8,28.8,29.86,West,271,9.0,14.0,85,0.00,CLR,CLR,0.03,0.0,WeatherDisplay:10.37,2013-02-22 22:24:00,
2013-02-22 16:29:00,32.5,28.5,29.86,West,266,6.0,13.0,85,0.00,CLR,CLR,0.03,0.0,WeatherDisplay:10.37,2013-02-22 22:29:00,
2013-02-22 16:34:00,32.3,28.0,29.86,West,264,8.0,14.0,84,0.00,CLR,CLR,0.03,0.0,WeatherDisplay:10.37,2013-02-22 22:34:00,
2013-02-22 16:39:00,32.1,27.8,29.86,West,262,8.0,13.0,84,0.00,CLR,CLR,0.03,0.0,WeatherDisplay:10.37,2013-02-22 22:39:00,
2013-02-22 16:44:00,31.9,27.9,29.87,WSW,257,9.0,16.0,85,0.00,CLR,CLR,0.03,0.0,WeatherDisplay:10.37,2013-02-22 22:44:00,
2013-02-22 16:49:00,31.7,27.4,29.87,West,265,7.0,15.0,84,0.00,CLR,CLR,0.03,0.0,WeatherDisplay:10.37,2013-02-22 22:49:00,
2013-02-22 16:54:00,31.6,27.6,29.87,West,267,8.0,13.0,85,0.00,CLR,CLR,0.03,0.0,WeatherDisplay:10.37,2013-02-22 22:54:00,
2013-02-22 16:59:00,31.4,27.1,29.88,West,268,8.0,15.0,84,0.00,CLR,CLR,0.03,0.0,WeatherDisplay:10.37,2013-02-22 22:59:00,
2013-02-22 17:04:00,31.3,27.0,29.88,West,270,7.0,13.0,84,0.00,CLR,CLR,0.03,0.0,WeatherDisplay:10.37,2013-02-22 23:04:00,
2013-02-22 17:09:00,31.2,26.7,29.88,West,268,10.0,16.0,83,0.00,CLR,CLR,0.03,0.0,WeatherDisplay:10.37,2013-02-22 23:09:00,
2013-02-22 17:14:00,31.2,26.6,29.88,West,267,8.0,14.0,83,0.00,CLR,CLR,0.03,0.0,WeatherDisplay:10.37,2013-02-22 23:14:00,
2013-02-22 17:19:00,31.2,26.9,29.88,West,265,8.0,12.0,84,0.00,CLR,CLR,0.03,0.0,WeatherDisplay:10.37,2013-02-22 23:19:00,
2013-02-22 17:24:00,31.1,26.8,29.89,West,264,5.0,14.0,84,0.00,CLR,CLR,0.03,0.0,WeatherDisplay:10.37,2013-02-22 23:24:00,
2013-02-22 17:29:00,31.1,26.5,29.89,West,261,8.0,14.0,83,0.00,CLR,CLR,0.03,0.0,WeatherDisplay:10.37,2013-02-22 23:29:00,
2013-02-22 17:34:00,31.1,26.5,29.89,WSW,255,10.0,13.0,83,0.00,CLR,CLR,0.03,0.0,WeatherDisplay:10.37,2013-02-22 23:34:00,
2013-02-22 17:44:00,31.1,26.2,29.89,WSW,252,9.0,16.0,82,0.00,CLR,CLR,0.03,0.0,WeatherDisplay:10.37,2013-02-22 23:44:00,
2013-02-22 17:49:00,31.0,26.4,29.89,WSW,247,9.0,16.0,83,0.00,CLR,CLR,0.03,0.0,WeatherDisplay:10.37,2013-02-22 23:49:00,
2013-02-22 17:54:00,30.9,26.4,29.89,WSW,244,10.0,16.0,83,0.00,CLR,CLR,0.03,0.0,WeatherDisplay:10.37,2013-02-22 23:54:00,
2013-02-22 17:59:00,30.9,26.3,29.90,WSW,247,9.0,14.0,83,0.00,CLR,CLR,0.03,0.0,WeatherDisplay:10.37,2013-02-22 23:59:00,
2013-02-22 18:04:00,30.8,26.0,29.90,WSW,251,12.0,16.0,82,0.00,CLR,CLR,0.03,0.0,WeatherDisplay:10.37,2013-02-23 00:04:00,
2013-02-22 18:09:00,30.8,26.0,29.90,WSW,246,10.0,16.0,82,0.00,CLR,CLR,0.03,0.0,WeatherDisplay:10.37,2013-02-23 00:09:00,
2013-02-22 18:14:00,30.7,25.9,29.90,WSW,244,13.0,20.0,82,0.00,CLR,CLR,0.03,0.0,WeatherDisplay:10.37,2013-02-23 00:14:00,
2013-02-22 18:24:00,30.7,26.1,29.90,WSW,243,10.0,15.0,83,0.00,CLR,CLR,0.03,0.0,WeatherDisplay:10.37,2013-02-23 00:24:00,
2013-02-22 18:34:00,30.6,26.1,29.90,WSW,243,13.0,18.0,83,0.00,CLR,CLR,0.03,0.0,WeatherDisplay:10.37,2013-02-23 00:34:00,
2013-02-22 18:39:00,30.6,26.0,29.90,WSW,246,13.0,18.0,83,0.00,CLR,CLR,0.03,0.0,WeatherDisplay:10.37,2013-02-23 00:39:00,
2013-02-22 18:44:00,30.5,26.0,29.91,WSW,247,13.0,17.0,83,0.00,CLR,CLR,0.03,0.0,WeatherDisplay:10.37,2013-02-23 00:44:00,
2013-02-22 18:54:00,30.4,26.1,29.91,WSW,248,12.0,15.0,84,0.00,CLR,CLR,0.03,0.0,WeatherDisplay:10.37,2013-02-23 00:54:00,
2013-02-22 18:59:00,30.4,26.4,29.90,WSW,247,10.0,15.0,85,0.00,CLR,CLR,0.03,0.0,WeatherDisplay:10.37,2013-02-23 00:59:00,
2013-02-22 19:04:00,30.3,26.0,29.90,WSW,249,13.0,16.0,84,0.00,CLR,CLR,0.03,0.0,WeatherDisplay:10.37,2013-02-23 01:04:00,
2013-02-22 19:09:00,30.2,26.2,29.91,WSW,252,13.0,17.0,85,0.00,CLR,CLR,0.03,0.0,WeatherDisplay:10.37,2013-02-23 01:09:00,
2013-02-22 19:14:00,30.1,26.1,29.91,WSW,249,10.0,15.0,85,0.00,CLR,CLR,0.03,0.0,WeatherDisplay:10.37,2013-02-23 01:14:00,
2013-02-22 19:24:00,30.0,26.0,29.91,WSW,247,10.0,17.0,85,0.00,CLR,CLR,0.03,0.0,WeatherDisplay:10.37,2013-02-23 01:24:00,
2013-02-22 19:29:00,30.0,26.0,29.91,WSW,249,13.0,17.0,85,0.00,CLR,CLR,0.03,0.0,WeatherDisplay:10.37,2013-02-23 01:29:00,
2013-02-22 19:34:00,29.9,25.9,29.91,WSW,249,13.0,16.0,85,0.00,CLR,CLR,0.03,0.0,WeatherDisplay:10.37,2013-02-23 01:34:00,
2013-02-22 19:39:00,29.9,25.9,29.91,WSW,250,10.0,15.0,85,0.00,CLR,CLR,0.03,0.0,WeatherDisplay:10.37,2013-02-23 01:39:00,
2013-02-22 19:44:00,29.8,25.8,29.91,WSW,247,10.0,14.0,85,0.00,CLR,CLR,0.03,0.0,WeatherDisplay:10.37,2013-02-23 01:44:00,
2013-02-22 19:49:00,29.8,25.8,29.92,WSW,246,10.0,14.0,85,0.00,CLR,CLR,0.03,0.0,WeatherDisplay:10.37,2013-02-23 01:49:00,
2013-02-22 19:54:00,29.9,25.9,29.92,WSW,253,12.0,16.0,85,0.00,CLR,CLR,0.03,0.0,WeatherDisplay:10.37,2013-02-23 01:54:00,
2013-02-22 19:59:00,29.9,25.7,29.92,WSW,254,12.0,16.0,84,0.00,CLR,CLR,0.03,0.0,WeatherDisplay:10.37,2013-02-23 01:59:00,
2013-02-22 20:04:00,29.8,25.6,29.92,WSW,246,10.0,15.0,84,0.00,CLR,CLR,0.03,0.0,WeatherDisplay:10.37,2013-02-23 02:04:00,
2013-02-22 20:09:00,29.8,25.8,29.92,WSW,251,10.0,18.0,85,0.00,CLR,CLR,0.03,0.0,WeatherDisplay:10.37,2013-02-23 02:09:00,
2013-02-22 20:14:00,29.8,25.8,29.92,WSW,250,9.0,15.0,85,0.00,CLR,CLR,0.03,0.0,WeatherDisplay:10.37,2013-02-23 02:14:00,
2013-02-22 20:19:00,29.7,25.8,29.92,WSW,246,10.0,16.0,85,0.00,CLR,CLR,0.03,0.0,WeatherDisplay:10.37,2013-02-23 02:19:00,
2013-02-22 20:24:00,29.7,25.8,29.92,WSW,244,10.0,15.0,85,0.00,CLR,CLR,0.03,0.0,WeatherDisplay:10.37,2013-02-23 02:24:00,
2013-02-22 20:29:00,29.7,26.0,29.92,WSW,247,12.0,16.0,86,0.00,CLR,CLR,0.03,0.0,WeatherDisplay:10.37,2013-02-23 02:29:00,
2013-02-22 20:39:00,29.6,26.2,29.92,WSW,247,9.0,15.0,87,0.00,CLR,CLR,0.03,0.0,WeatherDisplay:10.37,2013-02-23 02:39:00,
2013-02-22 20:44:00,29.5,26.1,29.92,WSW,248,9.0,14.0,87,0.00,CLR,CLR,0.03,0.0,WeatherDisplay:10.37,2013-02-23 02:44:00,
2013-02-22 20:49:00,29.4,26.0,29.92,WSW,242,10.0,13.0,87,0.00,CLR,CLR,0.03,0.0,WeatherDisplay:10.37,2013-02-23 02:49:00,
2013-02-22 20:54:00,29.3,26.2,29.92,WSW,238,8.0,12.0,88,0.00,CLR,CLR,0.03,0.0,WeatherDisplay:10.37,2013-02-23 02:54:00,
2013-02-22 20:59:00,29.3,26.2,29.92,WSW,242,10.0,14.0,88,0.00,CLR,CLR,0.03,0.0,WeatherDisplay:10.37,2013-02-23 02:59:00,
2013-02-22 21:04:00,29.3,25.9,29.92,WSW,248,12.0,16.0,87,0.00,CLR,CLR,0.03,0.0,WeatherDisplay:10.37,2013-02-23 03:04:00,
2013-02-22 21:14:00,29.2,25.5,29.92,WSW,249,14.0,17.0,86,0.00,CLR,CLR,0.03,0.0,WeatherDisplay:10.37,2013-02-23 03:14:00,
2013-02-22 21:19:00,29.1,25.4,29.92,WSW,245,13.0,21.0,86,0.00,CLR,CLR,0.03,0.0,WeatherDisplay:10.37,2013-02-23 03:19:00,
2013-02-22 21:24:00,29.0,25.3,29.92,WSW,245,10.0,17.0,86,0.00,CLR,CLR,0.03,0.0,WeatherDisplay:10.37,2013-02-23 03:24:00,
2013-02-22 21:29:00,29.0,25.3,29.92,WSW,249,12.0,17.0,86,0.00,CLR,CLR,0.03,0.0,WeatherDisplay:10.37,2013-02-23 03:29:00,
2013-02-22 21:34:00,28.9,25.2,29.92,WSW,250,12.0,18.0,86,0.00,CLR,CLR,0.03,0.0,WeatherDisplay:10.37,2013-02-23 03:34:00,
2013-02-22 21:39:00,28.9,25.2,29.92,WSW,247,12.0,16.0,86,0.00,CLR,CLR,0.03,0.0,WeatherDisplay:10.37,2013-02-23 03:39:00,
2013-02-22 21:44:00,28.9,25.2,29.93,WSW,251,13.0,16.0,86,0.00,CLR,CLR,0.03,0.0,WeatherDisplay:10.37,2013-02-23 03:44:00,
2013-02-22 21:49:00,28.8,25.2,29.92,WSW,252,10.0,16.0,86,0.00,CLR,CLR,0.03,0.0,WeatherDisplay:10.37,2013-02-23 03:49:00,
2013-02-22 21:54:00,28.8,25.1,29.92,WSW,248,12.0,18.0,86,0.00,CLR,CLR,0.03,0.0,WeatherDisplay:10.37,2013-02-23 03:54:00,
2013-02-22 21:59:00,28.8,25.1,29.92,WSW,246,12.0,16.0,86,0.00,CLR,CLR,0.03,0.0,WeatherDisplay:10.37,2013-02-23 03:59:00,
2013-02-22 22:04:00,28.8,25.1,29.92,WSW,247,12.0,17.0,86,0.00,CLR,CLR,0.03,0.0,WeatherDisplay:10.37,2013-02-23 04:04:00,
2013-02-22 22:09:00,28.7,25.1,29.92,WSW,247,13.0,18.0,86,0.00,CLR,CLR,0.03,0.0,WeatherDisplay:10.37,2013-02-23 04:09:00,
2013-02-22 22:14:00,28.7,25.0,29.92,WSW,248,12.0,18.0,86,0.00,CLR,CLR,0.03,0.0,WeatherDisplay:10.37,2013-02-23 04:14:00,
2013-02-22 22:24:00,28.5,24.8,29.93,WSW,249,12.0,16.0,86,0.00,CLR,CLR,0.03,0.0,WeatherDisplay:10.37,2013-02-23 04:24:00,
2013-02-22 22:29:00,28.5,24.8,29.92,WSW,246,9.0,17.0,86,0.00,CLR,CLR,0.03,0.0,WeatherDisplay:10.37,2013-02-23 04:29:00,
2013-02-22 22:34:00,28.4,24.7,29.92,WSW,253,9.0,17.0,86,0.00,CLR,CLR,0.03,0.0,WeatherDisplay:10.37,2013-02-23 04:34:00,
2013-02-22 22:39:00,28.3,24.6,29.92,WSW,255,12.0,16.0,86,0.00,CLR,CLR,0.03,0.0,WeatherDisplay:10.37,2013-02-23 04:39:00,
2013-02-22 22:44:00,28.3,24.9,29.93,WSW,249,9.0,14.0,87,0.00,CLR,CLR,0.03,0.0,WeatherDisplay:10.37,2013-02-23 04:44:00,
2013-02-22 22:49:00,28.3,24.9,29.93,WSW,247,10.0,17.0,87,0.00,CLR,CLR,0.03,0.0,WeatherDisplay:10.37,2013-02-23 04:49:00,
2013-02-22 22:54:00,28.2,24.8,29.93,WSW,248,9.0,14.0,87,0.00,CLR,CLR,0.03,0.0,WeatherDisplay:10.37,2013-02-23 04:54:00,
2013-02-22 22:59:00,28.1,24.7,29.93,WSW,248,10.0,13.0,87,0.00,CLR,CLR,0.03,0.0,WeatherDisplay:10.37,2013-02-23 04:59:00,
2013-02-22 23:04:00,28.1,24.8,29.92,WSW,246,12.0,14.0,87,0.00,CLR,CLR,0.03,0.0,WeatherDisplay:10.37,2013-02-23 05:04:00,
2013-02-22 23:09:00,28.2,24.8,29.92,WSW,246,12.0,14.0,87,0.00,CLR,CLR,0.03,0.0,WeatherDisplay:10.37,2013-02-23 05:09:00,
2013-02-22 23:14:00,28.2,24.8,29.92,WSW,247,10.0,15.0,87,0.00,CLR,CLR,0.03,0.0,WeatherDisplay:10.37,2013-02-23 05:14:00,
2013-02-22 23:19:00,28.1,24.7,29.92,WSW,248,9.0,12.0,87,0.00,CLR,CLR,0.03,0.0,WeatherDisplay:10.37,2013-02-23 05:19:00,
2013-02-22 23:24:00,28.0,24.6,29.92,WSW,254,10.0,15.0,87,0.00,CLR,CLR,0.03,0.0,WeatherDisplay:10.37,2013-02-23 05:24:00,
2013-02-22 23:29:00,27.9,24.5,29.92,WSW,253,10.0,15.0,87,0.00,CLR,CLR,0.03,0.0,WeatherDisplay:10.37,2013-02-23 05:29:00,
2013-02-22 23:34:00,27.9,24.5,29.92,WSW,252,10.0,15.0,87,0.00,CLR,CLR,0.03,0.0,WeatherDisplay:10.37,2013-02-23 05:34:00,
2013-02-22 23:39:00,27.9,24.5,29.92,WSW,255,9.0,16.0,87,0.00,CLR,CLR,0.03,0.0,WeatherDisplay:10.37,2013-02-23 05:39:00,
2013-02-22 23:44:00,27.9,24.5,29.92,West,259,9.0,14.0,87,0.00,CLR,CLR,0.03,0.0,WeatherDisplay:10.37,2013-02-23 05:44:00,
2013-02-22 23:49:00,27.8,24.4,29.92,WSW,257,9.0,15.0,87,0.00,CLR,CLR,0.03,0.0,WeatherDisplay:10.37,2013-02-23 05:49:00,
2013-02-22 23:54:00,27.8,24.4,29.92,WSW,257,9.0,16.0,87,0.00,RA,RA,0.00,0.0,WeatherDisplay:10.37,2013-02-23 05:54:00,
2013-02-22 23:59:00,27.8,24.4,29.92,WSW,252,9.0,13.0,87,0.00,RA,RA,0.00,0.0,WeatherDisplay:10.37,2013-02-23 05:59:00,